Orbital Elements at Epoch 2459200.5 (2020-Dec-17.0) TDB
Reference: JPL 24 (heliocentric ecliptic J2000)
Element | Value | Uncertainty (1-sigma) | Units |
e | .08777853529403597 | 3.9849e-08 | |
a | 2.16527590921553 | 6.7344e-09 | au |
q | 1.975211161397129 | 8.5106e-08 | au |
i | 4.172479837269885 | 3.2694e-06 | deg |
node | 335.6499017505833 | 6.1502e-05 | deg |
peri | 239.9378412022957 | 6.4726e-05 | deg |
M | 200.7733461486959 | 2.1449e-05 | deg |
tp | 2459715.232464768213 (2022-May-15.73246477) | 7.0012e-05 | TDB |
period | 1163.773041978292 3.19 | 5.4293e-06 1.486e-08 | d yr |
n | .30933866571444 | 1.4431e-09 | deg/d |
Q | 2.355340657033931 | 7.3255e-09 | au |
|
| | Orbit Determination Parameters
Additional Information
|